Torna al catalogo

RADUGA 15

AttivoMilitareGEO
NORAD 15057·PAYLOAD·🇷🇺 Russia

Lanciato Jun 22, 1984 da Baikonur Cosmodrome

Loading…

TLE

AggiornatoSource: Space-Track

Epoca: Sep 14, 2026, 05:25 UTC

1 15057U 84063A   26257.22602409  .00000132  00000-0  00000-0 0  9992
2 15057   8.5669 311.2761 0003671 233.2812 286.7425  1.00200598141996

Traccia RADUGA 15 in tempo reale con AllMySat

Download on the App Store